Rock Hill, SC

1:17 AM EST on December 09, 2016 (GMT -0500)
Rock Hill-York County-Bryant

Weather History for KUZA - September, 2012

Change the Weather History Date:

Friday, September 7, 2012

  Actual Average Record
Temperature  
Mean Temperature 79 °F -  
Max Temperature 88 °F 84 °F 98 °F (1954)
Min Temperature 70 °F 64 °F 51 °F (1967)
Cooling Degree Days 14    
Growing Degree Days 29 (Base 50)    
Moisture  
Dew Point 71 °F    
Average Humidity 87    
Maximum Humidity 100    
Minimum Humidity 55    
Precipitation  
Precipitation 0.00 in - - ()
Sea Level Pressure  
Sea Level Pressure 29.93 in    
Wind  
Wind Speed 1 mph (East)    
Max Wind Speed 7 mph    
Max Gust Speed -    
Visibility 7 miles    
Events      
Averages and records for this station are not official NWS values.
T = Trace of Precipitation, MM = Missing Value Source: NWS Daily Summary

Daily Weather History Graph

Daily Weather History Graph

Search for Another Location

Airport or City:

Trip Planner

Search our weather history database for the weather conditions in past years. The results will help you decide how hot, cold, wet, or windy it might be!

Date:

Astronomy

Sep. 07, 2012 Rise Set
Actual Time 7:01 AM EDT 7:41 PM EDT
Civil Twilight 6:36 AM EDT 8:07 PM EDT
Nautical Twilight 6:05 AM EDT 8:37 PM EDT
Astronomical Twilight 5:34 AM EDT 9:08 PM EDT
Moon 11:53 PM EDT (9/7) 1:35 PM EDT (9/7)
Length of Visible Light 13h 31m
Length of Day
12h 40m
Waning Gibbous, 58% of the Moon is Illuminated
Sep 7
Waning Gibbous
Sep 8
Last Quarter
Sep 15
New
Sep 22
First Quarter
Sep 29
Full

Hourly Weather History & Observations

Time (EDT) Temp. Heat Index Dew Point Humidity Pressure Visibility Wind Dir Wind Speed Gust Speed Precip Events Conditions
12:26 AM 73.9 °F - 73.0 °F 97% 29.98 in 9.0 mi Calm Calm - N/A   Overcast
12:54 AM 73.9 °F - 72.0 °F 93% 29.93 in 10.0 mi Calm Calm - N/A   Overcast
1:11 AM 73.0 °F - 72.0 °F 96% 29.96 in 9.0 mi Calm Calm - N/A   Scattered Clouds
1:54 AM 70.0 °F - 70.0 °F 100% 29.93 in 7.0 mi NNE 3.5 mph - N/A   Clear
2:37 AM 71.1 °F - 71.1 °F 100% 29.96 in 7.0 mi Calm Calm - N/A   Scattered Clouds
2:47 AM 72.0 °F - 71.1 °F 97% 29.96 in 7.0 mi Calm Calm - N/A   Mostly Cloudy
2:54 AM 71.1 °F - 71.1 °F 100% 29.91 in 7.0 mi Calm Calm - N/A   Mostly Cloudy
3:17 AM 72.0 °F - 72.0 °F 100% 29.95 in 8.0 mi Calm Calm - N/A   Overcast
3:54 AM 73.0 °F - 73.0 °F 100% 29.91 in 6.0 mi Variable 4.6 mph - N/A   Overcast
4:06 AM 73.0 °F - 72.0 °F 96% 29.95 in 7.0 mi ENE 4.6 mph - N/A   Overcast
4:54 AM 72.0 °F - 72.0 °F 100% 29.91 in 6.0 mi Calm Calm - N/A   Mostly Cloudy
5:03 AM 72.0 °F - 72.0 °F 100% 29.95 in 6.0 mi Calm Calm - N/A   Scattered Clouds
5:13 AM 72.0 °F - 72.0 °F 100% 29.95 in 6.0 mi Calm Calm - N/A   Mostly Cloudy
5:20 AM 72.0 °F - 72.0 °F 100% 29.95 in 6.0 mi Calm Calm - N/A   Mostly Cloudy
5:54 AM 71.1 °F - 71.1 °F 100% 29.92 in 5.0 mi NE 3.5 mph - N/A   Partly Cloudy
6:54 AM 70.0 °F - 70.0 °F 100% 29.93 in 3.0 mi Calm Calm - N/A   Clear
7:01 AM 70.0 °F - 70.0 °F 100% 29.97 in 1.8 mi Calm Calm - N/A   Clear
7:31 AM 70.0 °F - 70.0 °F 100% 29.98 in 3.0 mi Calm Calm - N/A   Partly Cloudy
7:54 AM 71.1 °F - 71.1 °F 100% 29.96 in 3.0 mi Calm Calm - N/A   Scattered Clouds
7:56 AM 72.0 °F - 72.0 °F 100% 29.99 in 2.5 mi Calm Calm - N/A   Mostly Cloudy
8:14 AM 72.0 °F - 72.0 °F 100% 29.99 in 4.0 mi Calm Calm - N/A   Overcast
8:54 AM 73.0 °F - 72.0 °F 96% 29.96 in 4.0 mi NE 3.5 mph - N/A   Overcast
9:54 AM 73.9 °F - 72.0 °F 93% 29.98 in 6.0 mi ENE 5.8 mph - N/A   Overcast
10:44 AM 77.0 °F - 72.0 °F 84% 30.02 in 8.0 mi SE 3.5 mph - N/A   Overcast
10:54 AM 78.1 °F - 72.0 °F 81% 29.99 in 9.0 mi East 3.5 mph - N/A   Overcast
11:28 AM 79.0 °F - 72.0 °F 79% 30.01 in 10.0 mi Calm Calm - N/A   Scattered Clouds
11:54 AM 81.0 °F 85.2 °F 72.0 °F 74% 29.96 in 10.0 mi ESE 6.9 mph - N/A   Partly Cloudy
12:54 PM 84.0 °F 89.0 °F 71.1 °F 65% 29.95 in 10.0 mi Variable 4.6 mph - N/A   Clear
1:54 PM 87.1 °F 92.8 °F 71.1 °F 59% 29.93 in 10.0 mi Variable 5.8 mph - N/A   Clear
2:54 PM 87.1 °F 91.3 °F 69.1 °F 55% 29.91 in 10.0 mi ESE 4.6 mph - N/A   Scattered Clouds
3:54 PM 88.0 °F 92.9 °F 70.0 °F 55% 29.88 in 10.0 mi South 3.5 mph - N/A   Partly Cloudy
4:54 PM 84.9 °F 87.6 °F 66.9 °F 55% 29.88 in 10.0 mi Calm Calm - N/A   Clear
5:54 PM 86.0 °F 90.1 °F 69.1 °F 57% 29.87 in 10.0 mi Calm Calm - N/A   Mostly Cloudy
6:54 PM 84.9 °F 89.4 °F 70.0 °F 61% 29.86 in 10.0 mi Calm Calm - N/A   Clear
7:54 PM 79.0 °F - 72.0 °F 79% 29.86 in 10.0 mi SE 3.5 mph - N/A   Clear
8:54 PM 75.9 °F - 71.1 °F 85% 29.86 in 10.0 mi Calm Calm - N/A   Clear
9:54 PM 75.0 °F - 70.0 °F 84% 29.86 in 10.0 mi SE 3.5 mph - N/A   Clear
10:41 PM 75.9 °F - 70.0 °F 82% 29.90 in 1.8 mi Calm Calm - N/A   Haze
10:52 PM 75.2 °F - 69.8 °F 83% 29.91 in 3.0 mi Calm Calm - N/A   Haze
10:54 PM 75.9 °F - 70.0 °F 82% 29.87 in 7.0 mi Variable 3.5 mph - N/A   Clear
11:54 PM 71.1 °F - 70.0 °F 96% 29.86 in 9.0 mi Calm Calm - N/A   Clear